This demonstration page uses our WeatherBlox Daily Observations layout. Learn more.

Hourly Observations for September 22, 2019

Temp ( °F °C ) Dew Point ( °F °C ) Humidity (%) Winds ( mph kmh ) Pressure ( in mb ) Visibility ( mi km ) Precip ( " mm )
12:18 am 00:18 Cloudy with Light Rain 68 20 64 17.8 87 87 W 15 24 29.88 1012 10 16.09344 0.01 0.254
1:54 am 01:54 Partly Cloudy 68 20 63 17.2 84 84 WNW 12 19 29.85 1011 10 16.09344 0.01 0.254
2:06 am 02:06 Mostly Cloudy 67 19.4 63 17.2 87 87 W 8 13 29.85 1011 10 16.09344 0 0
2:26 am 02:26 Partly Cloudy 67 19.4 63 17.2 87 87 Calm 29.88 1012 10 16.09344 0 0
2:54 am 02:54 Mostly Clear 66 18.9 62 16.7 87 87 N 3 6 29.85 1011 10 16.09344 0 0
3:54 am 03:54 Cloudy with Light Rain 66 18.9 63 17.2 90 90 ESE 9 15 29.83 1010 8 12.874752 0.06 1.524
4:54 am 04:54 Cloudy with Rain 66 18.9 63 17.2 90 90 Calm 29.83 1010 8 12.874752 0.11 2.794
5:21 am 05:21 Cloudy with Light Rain 66 18.9 64 17.8 93 93 N 3 6 29.88 1012 8 12.874752 0.07 1.778
5:29 am 05:29 Cloudy with Heavy Rain 65 18.3 63 17.2 93 93 NW 6 9 29.85 1011 2.5 4.02336 0.07 1.778
5:37 am 05:37 Cloudy with Heavy Rain 65 18.3 63 17.2 93 93 VRB 5 7 29.85 1011 1 1.609344 0.24 6.096
5:51 am 05:51 Cloudy with Heavy Rain 64 18 63 17 94 94 NNW 13 20 29.88 1012 2 3.218688 0.36 9.144
5:54 am 05:54 Cloudy with Heavy Rain 64 17.8 62 16.7 93 93 NNW 16 26 29.85 1011 2 3.218688 0.39 9.906
6:01 am 06:01 Cloudy with Heavy Rain 63 17.2 61 16.1 93 93 N 15 24 29.88 1012 2.5 4.02336 0.04 1.016
6:12 am 06:12 Cloudy with Heavy Rain 63 17.2 60 15.6 90 90 N 14 22 29.88 1012 2.5 4.02336 0.13 3.302
6:19 am 06:19 Cloudy with Heavy Rain 63 17.2 60 15.6 90 90 N 16 26 29.88 1012 3 4.828032 0.18 4.572
6:27 am 06:27 Cloudy with Heavy Rain 62 16.7 59 15 90 90 N 22 35 29.88 1012 3 4.828032 0.24 6.096
6:34 am 06:34 Cloudy with Heavy Rain 61 16.1 58 14.4 90 90 N 25 41 29.88 1012 3 4.828032 0.28 7.112
6:54 am 06:54 Cloudy with Heavy Rain 59 15 56 13.3 90 90 NNW 23 37 29.88 1012 4 6.437376 0.36 9.144
7:28 am 07:28 Cloudy with Rain 59 15 56 13.3 90 90 NNW 21 33 29.97 1015 5 8.04672 0.1 2.54
7:40 am 07:40 Cloudy with Heavy Rain 59 15 55 12.8 87 87 NNW 24 39 29.94 1014 2.5 4.02336 0.14 3.556
7:54 am 07:54 Cloudy with Rain 58 14.4 54 12.2 87 87 NNE 20 31 29.88 1012 5 8.04672 0.21 5.334
8:32 am 08:32 Mostly Cloudy 59 15 55 12.8 87 87 NNW 15 24 29.94 1014 10 16.09344 0.01 0.254
8:54 am 08:54 Partly Cloudy 59 15 55 12.8 87 87 N 15 24 29.91 1013 10 16.09344 0.01 0.254
9:54 am 09:54 Cloudy 61 16.1 56 13.3 84 84 N 7 11 29.91 1013 10 16.09344 0 0
10:54 am 10:54 Sunny 67 19.4 57 13.9 71 71 N 8 13 29.91 1013 10 16.09344 0 0
11:54 am 11:54 Mostly Sunny 69 20.6 56 13.3 63 63 N 9 15 29.91 1013 10 16.09344 0 0
12:54 pm 12:54 Mostly Cloudy 69 20.6 56 13.3 63 63 NNW 13 20 29.91 1013 10 16.09344 0 0
1:54 pm 13:54 Mostly Sunny 73 22.8 53 11.7 50 50 N 13 20 29.88 1012 10 16.09344 0 0
2:54 pm 14:54 Sunny 75 23.9 54 12.2 48 48 NW 9 15 29.88 1012 10 16.09344 0 0
3:54 pm 15:54 Mostly Sunny 76 24.4 55 12.8 48 48 N 10 17 29.88 1012 10 16.09344 0 0
4:54 pm 16:54 Mostly Sunny 76 24.4 52 11.1 43 43 NNW 9 15 29.88 1012 10 16.09344 0 0
5:54 pm 17:54 Sunny 76 24.4 50 10 40 40 WNW 7 11 29.91 1013 10 16.09344 0 0
6:54 pm 18:54 Sunny 74 23.3 51 10.6 45 45 W 3 6 29.91 1013 10 16.09344 0 0
7:54 pm 19:54 Clear 71 21.7 54 12.2 55 55 WNW 5 7 29.94 1014 10 16.09344 0 0
8:54 pm 20:54 Clear 62 16.7 55 12.8 78 78 Calm 29.97 1015 10 16.09344 0 0
9:54 pm 21:54 Clear 61 16.1 56 13.3 84 84 Calm 30 1016 10 16.09344 0 0
10:54 pm 22:54 Clear 60 15.6 56 13.3 86 86 Calm 30 1016 10 16.09344 0 0
11:54 pm 23:54 Clear 56 13.3 53 11.7 90 90 Calm 30 1016 10 16.09344 0 0

Powered by AerisWeather